Find Starlink 11322

NORAD ID: 61542 Int'l Des: 2024-184 Owner: SPXS Country: US Constellation: starlink operational
LEOCIRCULAR

Live Position

Loading 3D Globe...

About Starlink 11322

Description loading...

Upcoming Passes

Passes for default location (London). Set your location on the main map for personalized predictions.

Altitude History

Loading altitude history...

Two-Line Element Set

1 61542U 24184L 26126.75488321 .00000855 00000-0 11912-4 0 9998
2 61542 53.1586 310.2749 0001008 118.4444 241.6675 15.69706118 90597
Epoch: May 6, 2026 • Age: 8 hours

Current Status

Altitude 362.2 km
Velocity 7.70 km/s
Sub-Earth Point 35.52°N, 86.55°E
Launch Date Oct 15, 2024
Age 1.5 years
Type internet

Technical Details

Classification Payload
Mass 960.00 kg
Dry Mass 910.00 kg
Total Mass 960.00 kg
Length 0.30 m
Diameter 4.10 m
Span 29.00 m
Shape Box + pan
Manufacturer SPXS
Bus Type Starlink V2MD
Phase Status In Orbit
Owner/State SPXS/US

Most Searched